This is the latest recevied weather packets stored in our database for station/object G7GQA-4. If no packets are shown the sender has not sent any weather packets the latest 10 day(s).
| Time | Temp. | Humidity | Pressure | Rain* | Wind** | Luminosity | Snow |
|---|---|---|---|---|---|---|---|
| 1777667724 | 12.78° C | 87% | - | 0 mm | - | 0 W/m² | - |
| 1777667124 | 12.78° C | 87% | - | 0 mm | - | 0 W/m² | - |
| 1777665324 | 13.89° C | 83% | - | 0 mm | - | 0 W/m² | - |
| 1777664724 | 14.44° C | 84% | - | 0 mm | - | 1 W/m² | - |
| 1777664124 | 14.44° C | 84% | - | 0 mm | - | 2 W/m² | - |
| 1777663524 | 14.44° C | 83% | - | 0 mm | - | 5 W/m² | - |
| 1777662924 | 14.44° C | 82% | - | 0 mm | - | 8 W/m² | - |
| 1777662324 | 15° C | 81% | - | 0 mm | - | 12 W/m² | - |
| 1777661724 | 15° C | 81% | - | 0 mm | - | 15 W/m² | - |
| 1777660524 | 15.56° C | 79% | - | 0 mm | - | 29 W/m² | - |
| 1777659924 | 16.11° C | 77% | - | 0 mm | - | 46 W/m² | - |
| 1777659324 | 16.11° C | 76% | - | 0 mm | - | 64 W/m² | - |
| 1777655725 | 16.67° C | 72% | - | 0 mm | - | 60 W/m² | - |
| 1777654524 | 16.67° C | 73% | - | 0 mm | - | 88 W/m² | - |
| 1777653924 | 16.67° C | 75% | - | 0 mm | - | 88 W/m² | - |
| 1777652724 | 16.67° C | 77% | - | 0 mm | - | 157 W/m² | - |
| 1777650924 | 16.11° C | 75% | - | 0 mm | - | 140 W/m² | - |
| 1777650325 | 16.67° C | 74% | - | 0 mm | - | 169 W/m² | - |
| 1777649724 | 16.11° C | 76% | - | 0 mm | - | 166 W/m² | - |
| 1777649125 | 16.11° C | 76% | - | 0 mm | - | 187 W/m² | - |
| 1777648525 | 15.56° C | 76% | - | 0 mm | - | 123 W/m² | - |
| 1777647925 | 15.56° C | 75% | - | 0 mm | - | 71 W/m² | - |
| 1777647324 | 16.67° C | 70% | - | 0 mm | - | 116 W/m² | - |
| 1777646724 | 17.22° C | 64% | - | 0 mm | - | 103 W/m² | - |
| 1777646124 | 18.89° C | 60% | - | 0 mm | - | 192 W/m² | - |
* Rain latest hour (hover to see other rain measurements)
** Current wind speed in m/s (hover to see current wind gust speed)